FW4136 Weather Reports


Display with metric or nautical units.
time (UTC)temp
F
wind
direction
speed
MPH
gust
MPH
rain 1hr
in
rain 24hr
in
rain mn
in
humidity
%
barometer
mb
20260507134700 43 360 5.0 8.0 0.00 0.03 0.00 66 1013.3
20260507123029 41 341 0.0 2.0 0.00 0.04 0.00 69 1013.6
20260507113100 41 341 1.0 3.0 0.00 0.06 0.00 68 1013.5
20260507101517 42 332 4.0 8.0 0.00 0.10 0.00 55 1012.9
20260507093045 39 342 7.0 9.0 0.00 0.12 0.00 80 1013.1
20260507084654 39 144 0.0 3.0 0.00 0.18 0.00 81 1013.0
20260507073106 39 11 1.0 3.0 0.00 0.27 0.00 80 1012.6
20260507063105 39 11 1.0 5.0 0.00 0.33 0.00 77 1013.0
20260507053007 40 5 1.0 2.0 0.00 0.36 0.00 77 1013.1
20260507043029 40 5 1.0 2.0 0.00 0.38 0.00 74 1013.4
20260507034635 42 346 2.0 5.0 0.00 0.38 0.38 75 1013.6
20260507024607 42 194 0.0 2.0 0.00 0.40 0.38 73 1013.4
20260507013014 42 297 2.0 3.0 0.00 0.47 0.38 74 1013.4
20260507001504 43 296 2.0 3.0 0.00 0.52 0.38 73 1012.8
20260506234653 43 297 0.0 1.0 0.00 0.59 0.38 73 1012.6
20260506224627 43 23 2.0 3.0 0.00 0.77 0.38 82 1012.3
20260506203146 42 14 13.0 16.0 0.00 0.87 0.37 76 1010.8
20260506193026 46 58 9.0 12.0 0.00 0.87 0.37 75 1010.3
20260506183030 47 57 10.0 12.0 0.00 0.87 0.37 75 1010.1
20260506174643 46 63 10.0 12.0 0.00 0.87 0.37 74 1010.1
20260506163009 47 140 1.0 4.0 0.00 0.87 0.37 76 1010.0
20260506153009 46 81 1.0 4.0 0.00 0.87 0.37 81 1009.9